Time,TemperatureF,DewpointF,PressureIn,WindDirection,WindDirectionDegrees,WindSpeedMPH,WindSpeedGustMPH,Humidity,HourlyPrecipIn,Conditions,Clouds,dailyrainin,SoftwareType,DateUTC
2013-05-24 00:07:00,47.3,46.8,29.85,ESE,112,1.1,-999.0,98,-99.99,,,0.00,Acu-Link.com,2013-05-24 04:07:00,
2013-05-24 00:22:00,46.4,45.9,29.86,South,180,1.1,-999.0,98,-99.99,,,0.00,Acu-Link.com,2013-05-24 04:22:00,
2013-05-24 00:37:00,46.0,45.5,29.86,ESE,112,0.0,-999.0,98,-99.99,,,0.00,Acu-Link.com,2013-05-24 04:37:00,
2013-05-24 00:53:00,45.5,45.0,29.85,West,270,1.6,-999.0,98,-99.99,,,0.01,Acu-Link.com,2013-05-24 04:53:00,
2013-05-24 01:08:00,45.5,45.0,29.85,NNW,337,0.0,-999.0,98,-99.99,,,0.01,Acu-Link.com,2013-05-24 05:08:00,
2013-05-24 01:23:00,45.1,44.6,29.86,NNW,337,0.0,-999.0,98,-99.99,,,0.01,Acu-Link.com,2013-05-24 05:23:00,
2013-05-24 01:38:00,44.4,43.9,29.86,North,0,2.2,-999.0,98,-99.99,,,0.02,Acu-Link.com,2013-05-24 05:38:00,
2013-05-24 01:53:00,44.4,43.9,29.86,North,0,1.6,-999.0,98,-99.99,,,0.04,Acu-Link.com,2013-05-24 05:53:00,
2013-05-24 02:09:00,44.2,43.7,29.85,ESE,112,2.7,-999.0,98,-99.99,,,0.05,Acu-Link.com,2013-05-24 06:09:00,
2013-05-24 02:24:00,43.9,43.4,29.85,North,0,2.7,-999.0,98,-99.99,,,0.05,Acu-Link.com,2013-05-24 06:24:00,
2013-05-24 02:39:00,43.5,43.0,29.85,SE,135,1.1,-999.0,98,-99.99,,,0.05,Acu-Link.com,2013-05-24 06:39:00,
2013-05-24 02:54:00,43.2,42.6,29.86,North,0,3.1,-999.0,98,-99.99,,,0.06,Acu-Link.com,2013-05-24 06:54:00,
2013-05-24 03:09:00,42.8,42.3,29.85,ESE,112,3.8,-999.0,98,-99.99,,,0.06,Acu-Link.com,2013-05-24 07:09:00,
2013-05-24 03:25:00,42.8,42.3,29.85,SSE,157,2.2,-999.0,98,-99.99,,,0.06,Acu-Link.com,2013-05-24 07:25:00,
2013-05-24 03:40:00,42.4,41.9,29.86,ESE,112,2.2,-999.0,98,-99.99,,,0.06,Acu-Link.com,2013-05-24 07:40:00,
2013-05-24 03:55:00,42.3,41.7,29.85,ESE,112,2.2,-999.0,98,-99.99,,,0.09,Acu-Link.com,2013-05-24 07:55:00,
2013-05-24 04:11:00,42.1,41.6,29.85,ESE,112,0.0,-999.0,98,-99.99,,,0.09,Acu-Link.com,2013-05-24 08:11:00,
2013-05-24 04:26:00,42.1,41.6,29.85,SSE,157,0.0,-999.0,98,-99.99,,,0.09,Acu-Link.com,2013-05-24 08:26:00,
2013-05-24 04:41:00,41.9,41.4,29.86,ESE,112,3.8,-999.0,98,-99.99,,,0.12,Acu-Link.com,2013-05-24 08:41:00,
2013-05-24 04:57:00,41.7,41.2,29.86,ESE,112,3.8,-999.0,98,-99.99,,,0.12,Acu-Link.com,2013-05-24 08:57:00,
2013-05-24 05:12:00,41.7,41.2,29.86,ESE,112,1.6,-999.0,98,-99.99,,,0.12,Acu-Link.com,2013-05-24 09:12:00,
2013-05-24 05:27:00,41.5,41.0,29.87,SE,135,2.2,-999.0,98,-99.99,,,0.12,Acu-Link.com,2013-05-24 09:27:00,
2013-05-24 05:42:00,41.4,40.8,29.87,ESE,112,2.7,-999.0,98,-99.99,,,0.12,Acu-Link.com,2013-05-24 09:42:00,
2013-05-24 05:57:00,41.0,40.5,29.88,ESE,112,1.1,-999.0,98,-99.99,,,0.12,Acu-Link.com,2013-05-24 09:57:00,
2013-05-24 06:12:00,41.0,40.5,29.89,WSW,247,1.1,-999.0,98,-99.99,,,0.12,Acu-Link.com,2013-05-24 10:12:00,
2013-05-24 06:28:00,40.8,40.3,29.90,NNW,337,2.7,-999.0,98,-99.99,,,0.12,Acu-Link.com,2013-05-24 10:28:00,
2013-05-24 06:43:00,40.6,40.1,29.91,ESE,112,2.7,-999.0,98,-99.99,,,0.17,Acu-Link.com,2013-05-24 10:43:00,
2013-05-24 06:58:00,40.6,40.1,29.91,ESE,112,2.2,-999.0,98,-99.99,,,0.19,Acu-Link.com,2013-05-24 10:58:00,
2013-05-24 07:13:00,40.8,40.3,29.92,ESE,112,1.1,-999.0,98,-99.99,,,0.20,Acu-Link.com,2013-05-24 11:13:00,
2013-05-24 07:28:00,40.8,40.3,29.92,North,0,1.1,-999.0,98,-99.99,,,0.21,Acu-Link.com,2013-05-24 11:28:00,
2013-05-24 07:44:00,41.0,40.5,29.92,SSE,157,2.2,-999.0,98,-99.99,,,0.24,Acu-Link.com,2013-05-24 11:44:00,
2013-05-24 07:59:00,40.8,40.3,29.93,South,180,3.1,-999.0,98,-99.99,,,0.25,Acu-Link.com,2013-05-24 11:59:00,
2013-05-24 08:14:00,40.6,40.1,29.94,North,0,1.1,-999.0,98,-99.99,,,0.25,Acu-Link.com,2013-05-24 12:14:00,
2013-05-24 08:29:00,40.5,39.9,29.95,North,0,2.2,-999.0,98,-99.99,,,0.26,Acu-Link.com,2013-05-24 12:29:00,
2013-05-24 08:44:00,40.3,39.8,29.95,North,0,2.2,-999.0,98,-99.99,,,0.26,Acu-Link.com,2013-05-24 12:44:00,
2013-05-24 09:00:00,40.3,39.8,29.96,ESE,112,4.7,-999.0,98,-99.99,,,0.26,Acu-Link.com,2013-05-24 13:00:00,
2013-05-24 09:15:00,40.5,39.9,29.96,South,180,0.0,-999.0,98,-99.99,,,0.26,Acu-Link.com,2013-05-24 13:15:00,
2013-05-24 09:30:00,41.0,40.5,29.97,ESE,112,0.0,-999.0,98,-99.99,,,0.26,Acu-Link.com,2013-05-24 13:30:00,
2013-05-24 09:45:00,41.0,40.5,29.97,East,90,2.7,-999.0,98,-99.99,,,0.27,Acu-Link.com,2013-05-24 13:45:00,
2013-05-24 10:00:00,41.4,40.8,29.98,ESE,112,0.0,-999.0,98,-99.99,,,0.27,Acu-Link.com,2013-05-24 14:00:00,
2013-05-24 10:16:00,41.5,41.0,29.98,ESE,112,2.2,-999.0,98,-99.99,,,0.27,Acu-Link.com,2013-05-24 14:16:00,
2013-05-24 10:31:00,41.9,41.4,29.99,SSE,157,2.7,-999.0,98,-99.99,,,0.27,Acu-Link.com,2013-05-24 14:31:00,
2013-05-24 10:46:00,42.1,41.3,30.00,ESE,112,2.7,-999.0,97,-99.99,,,0.27,Acu-Link.com,2013-05-24 14:46:00,
2013-05-24 11:01:00,42.8,38.9,30.00,ESE,112,2.2,-999.0,86,-99.99,,,0.27,Acu-Link.com,2013-05-24 15:01:00,
2013-05-24 11:16:00,43.2,38.7,30.01,South,180,2.2,-999.0,84,-99.99,,,0.27,Acu-Link.com,2013-05-24 15:16:00,
2013-05-24 11:32:00,43.3,38.8,30.02,ESE,112,2.7,-999.0,84,-99.99,,,0.27,Acu-Link.com,2013-05-24 15:32:00,
2013-05-24 11:47:00,44.1,40.1,30.03,SSE,157,1.6,-999.0,86,-99.99,,,0.27,Acu-Link.com,2013-05-24 15:47:00,
2013-05-24 12:02:00,44.6,40.1,30.02,SSE,157,2.2,-999.0,84,-99.99,,,0.27,Acu-Link.com,2013-05-24 16:02:00,
2013-05-24 12:17:00,44.4,40.2,30.03,South,180,2.7,-999.0,85,-99.99,,,0.27,Acu-Link.com,2013-05-24 16:17:00,
2013-05-24 12:32:00,44.4,40.8,30.04,South,180,3.1,-999.0,87,-99.99,,,0.27,Acu-Link.com,2013-05-24 16:32:00,
2013-05-24 12:48:00,44.6,41.3,30.04,SSE,157,1.6,-999.0,88,-99.99,,,0.27,Acu-Link.com,2013-05-24 16:48:00,
2013-05-24 13:03:00,44.1,39.5,30.05,SSW,202,2.2,-999.0,84,-99.99,,,0.27,Acu-Link.com,2013-05-24 17:03:00,
2013-05-24 13:18:00,43.9,40.0,30.06,SSW,202,4.7,-999.0,86,-99.99,,,0.27,Acu-Link.com,2013-05-24 17:18:00,
2013-05-24 13:33:00,44.4,39.6,30.05,ESE,112,3.1,-999.0,83,-99.99,,,0.27,Acu-Link.com,2013-05-24 17:33:00,
2013-05-24 13:48:00,44.6,39.8,30.05,SSE,157,0.0,-999.0,83,-99.99,,,0.27,Acu-Link.com,2013-05-24 17:48:00,
2013-05-24 14:04:00,45.7,39.2,30.05,NE,45,6.7,-999.0,78,-99.99,,,0.27,Acu-Link.com,2013-05-24 18:04:00,
2013-05-24 14:19:00,46.4,38.6,30.06,NE,45,2.7,-999.0,74,-99.99,,,0.27,Acu-Link.com,2013-05-24 18:19:00,
2013-05-24 14:34:00,46.9,37.7,30.06,ENE,67,3.8,-999.0,70,-99.99,,,0.27,Acu-Link.com,2013-05-24 18:34:00,
2013-05-24 14:49:00,48.2,38.9,30.05,SSW,202,4.3,-999.0,70,-99.99,,,0.27,Acu-Link.com,2013-05-24 18:49:00,
2013-05-24 15:04:00,49.1,37.5,30.06,ESE,112,7.4,-999.0,64,-99.99,,,0.27,Acu-Link.com,2013-05-24 19:04:00,
2013-05-24 15:20:00,49.8,38.1,30.05,SE,135,1.1,-999.0,64,-99.99,,,0.27,Acu-Link.com,2013-05-24 19:20:00,
2013-05-24 15:35:00,49.6,36.7,30.06,NE,45,4.7,-999.0,61,-99.99,,,0.27,Acu-Link.com,2013-05-24 19:35:00,
2013-05-24 15:50:00,49.8,37.7,30.06,ESE,112,3.1,-999.0,63,-99.99,,,0.27,Acu-Link.com,2013-05-24 19:50:00,
2013-05-24 16:05:00,50.2,36.8,30.06,North,0,2.7,-999.0,60,-99.99,,,0.27,Acu-Link.com,2013-05-24 20:05:00,
2013-05-24 16:20:00,50.4,36.1,30.07,ESE,112,6.7,-999.0,58,-99.99,,,0.27,Acu-Link.com,2013-05-24 20:20:00,
2013-05-24 16:36:00,50.5,36.8,30.07,SSE,157,1.6,-999.0,59,-99.99,,,0.27,Acu-Link.com,2013-05-24 20:36:00,
2013-05-24 16:51:00,51.1,36.8,30.08,NNW,337,2.2,-999.0,58,-99.99,,,0.27,Acu-Link.com,2013-05-24 20:51:00,
2013-05-24 17:06:00,51.3,35.7,30.08,ESE,112,4.7,-999.0,55,-99.99,,,0.27,Acu-Link.com,2013-05-24 21:06:00,
2013-05-24 17:21:00,51.1,35.9,30.08,ENE,67,2.7,-999.0,56,-99.99,,,0.27,Acu-Link.com,2013-05-24 21:21:00,
2013-05-24 17:36:00,51.1,35.5,30.08,East,90,2.7,-999.0,55,-99.99,,,0.27,Acu-Link.com,2013-05-24 21:36:00,
2013-05-24 17:51:00,51.3,35.7,30.09,East,90,4.3,-999.0,55,-99.99,,,0.27,Acu-Link.com,2013-05-24 21:51:00,
2013-05-24 18:07:00,51.1,35.9,30.09,East,90,4.3,-999.0,56,-99.99,,,0.27,Acu-Link.com,2013-05-24 22:07:00,
2013-05-24 18:22:00,51.3,36.1,30.09,ESE,112,3.8,-999.0,56,-99.99,,,0.27,Acu-Link.com,2013-05-24 22:22:00,
2013-05-24 18:37:00,51.3,34.7,30.09,ESE,112,3.1,-999.0,53,-99.99,,,0.27,Acu-Link.com,2013-05-24 22:37:00,
2013-05-24 18:52:00,51.3,35.2,30.10,SE,135,2.2,-999.0,54,-99.99,,,0.27,Acu-Link.com,2013-05-24 22:52:00,
2013-05-24 19:07:00,50.9,35.3,30.10,East,90,4.3,-999.0,55,-99.99,,,0.27,Acu-Link.com,2013-05-24 23:07:00,
2013-05-24 19:22:00,50.7,35.1,30.10,East,90,4.3,-999.0,55,-99.99,,,0.27,Acu-Link.com,2013-05-24 23:22:00,
2013-05-24 19:38:00,50.4,34.8,30.11,ESE,112,2.2,-999.0,55,-99.99,,,0.27,Acu-Link.com,2013-05-24 23:38:00,
2013-05-24 19:53:00,50.2,34.6,30.11,ESE,112,2.7,-999.0,55,-99.99,,,0.27,Acu-Link.com,2013-05-24 23:53:00,
2013-05-24 20:08:00,49.8,34.8,30.11,ESE,112,4.3,-999.0,56,-99.99,,,0.27,Acu-Link.com,2013-05-25 00:08:00,
2013-05-24 20:23:00,49.3,36.0,30.11,SSW,202,3.1,-999.0,60,-99.99,,,0.27,Acu-Link.com,2013-05-25 00:23:00,
2013-05-24 20:39:00,49.1,35.8,30.12,SW,225,0.0,-999.0,60,-99.99,,,0.27,Acu-Link.com,2013-05-25 00:39:00,
2013-05-24 20:54:00,48.6,35.3,30.12,ESE,112,0.0,-999.0,60,-99.99,,,0.27,Acu-Link.com,2013-05-25 00:54:00,
2013-05-24 21:09:00,48.4,35.6,30.12,SSW,202,0.0,-999.0,61,-99.99,,,0.27,Acu-Link.com,2013-05-25 01:09:00,
2013-05-24 21:24:00,47.7,36.1,30.12,SW,225,0.0,-999.0,64,-99.99,,,0.27,Acu-Link.com,2013-05-25 01:24:00,
2013-05-24 21:39:00,47.3,36.1,30.12,SE,135,0.0,-999.0,65,-99.99,,,0.27,Acu-Link.com,2013-05-25 01:39:00,
2013-05-24 21:55:00,47.1,37.1,30.13,SW,225,1.6,-999.0,68,-99.99,,,0.27,Acu-Link.com,2013-05-25 01:55:00,
2013-05-24 22:10:00,46.8,35.6,30.13,SSE,157,0.0,-999.0,65,-99.99,,,0.27,Acu-Link.com,2013-05-25 02:10:00,
2013-05-24 22:25:00,46.8,36.4,30.13,South,180,1.6,-999.0,67,-99.99,,,0.27,Acu-Link.com,2013-05-25 02:25:00,
2013-05-24 22:40:00,46.4,36.4,30.14,SE,135,0.0,-999.0,68,-99.99,,,0.27,Acu-Link.com,2013-05-25 02:40:00,
2013-05-24 22:55:00,46.4,35.3,30.13,NNW,337,0.0,-999.0,65,-99.99,,,0.27,Acu-Link.com,2013-05-25 02:55:00,
2013-05-24 23:11:00,46.4,35.7,30.13,NNW,337,2.2,-999.0,66,-99.99,,,0.27,Acu-Link.com,2013-05-25 03:11:00,
2013-05-24 23:26:00,46.6,35.1,30.12,NNW,337,2.7,-999.0,64,-99.99,,,0.27,Acu-Link.com,2013-05-25 03:26:00,
2013-05-24 23:41:00,46.6,35.1,30.13,North,0,2.2,-999.0,64,-99.99,,,0.27,Acu-Link.com,2013-05-25 03:41:00,
2013-05-24 23:56:00,46.6,35.1,30.14,North,0,3.1,-999.0,64,-99.99,,,0.27,Acu-Link.com,2013-05-25 03:56:00,